GW3643 Weather Reports


time (UTC)temp
C
wind
direction
speed
KPH
gust
KPH
rain 1hr
cm
rain 24hr
cm
rain mn
cm
humidity
%
barometer
mb
20260503051044 13 181 3.2 12.9 0.00 1.24 0.00 85 1013.1
20260503050542 13 190 3.2 9.7 0.00 1.24 0.00 85 1013.1
20260503050054 13 141 3.2 8.0 0.00 1.24 0.00 85 1013.0
20260503045545 13 130 1.6 6.4 0.00 1.24 0.00 85 1013.0
20260503045045 13 134 3.2 6.4 0.00 1.24 0.00 85 1013.0
20260503044552 13 169 0.0 4.8 0.00 1.24 0.00 85 1013.1
20260503044042 13 0 1.6 4.8 0.00 1.24 0.00 85 1013.2
20260503043541 13 169 0.0 3.2 0.00 1.24 0.00 85 1013.3
20260503043050 13 169 0.0 3.2 0.00 1.24 0.00 84 1013.3
20260503042541 13 169 1.6 4.8 0.00 1.24 0.00 84 1013.4
20260503042044 13 0 1.6 9.7 0.00 1.24 0.00 84 1013.3
20260503041553 13 169 1.6 9.7 0.00 1.24 0.00 84 1013.2
20260503041044 13 120 1.6 8.0 0.00 1.24 0.00 84 1013.2
20260503040544 13 122 3.2 8.0 0.00 1.24 0.00 84 1013.2
20260503040113 13 154 3.2 8.0 0.00 1.24 0.00 84 1013.2
20260503035541 13 128 3.2 8.0 0.00 1.24 0.00 84 1013.3
20260503035042 13 147 1.6 6.4 0.00 1.24 0.00 85 1013.4
20260503034556 13 0 1.6 11.3 0.00 1.24 0.00 85 1013.4
20260503034044 13 125 1.6 11.3 0.00 1.24 0.00 84 1013.4
20260503033542 13 153 1.6 9.7 0.00 1.24 0.00 84 1013.5
20260503033052 13 130 3.2 9.7 0.00 1.24 0.00 84 1013.5
20260503032542 13 128 1.6 6.4 0.00 1.24 0.00 84 1013.6
20260503032042 13 137 0.0 6.4 0.00 1.24 0.00 84 1013.7
20260503031602 13 78 1.6 6.4 0.00 1.24 0.00 84 1013.7
20260503031044 13 80 1.6 6.4 0.00 1.24 0.00 84 1013.8
20260503030545 13 136 1.6 6.4 0.00 1.24 0.00 84 1013.8
20260503030050 13 0 1.6 4.8 0.00 1.24 0.00 84 1013.9
20260503025542 13 114 0.0 3.2 0.00 1.24 0.00 84 1013.9
20260503025041 13 0 0.0 4.8 0.00 1.24 0.00 83 1013.9
20260503024551 13 0 0.0 4.8 0.00 1.24 0.00 83 1013.9
20260503024044 13 87 1.6 4.8 0.00 1.24 0.00 83 1013.9
20260503023542 13 0 0.0 4.8 0.00 1.24 0.00 82 1013.9
20260503023051 14 153 0.0 4.8 0.00 1.24 0.00 82 1013.9
20260503022544 14 0 0.0 6.4 0.00 1.24 0.00 81 1013.9
20260503022046 14 153 1.6 6.4 0.00 1.24 0.00 80 1013.9
20260503021602 15 100 0.0 4.8 0.00 1.24 0.00 80 1013.9
20260503021047 15 0 0.0 3.2 0.00 1.24 0.00 79 1013.9
20260503020546 15 0 0.0 3.2 0.00 1.24 0.00 78 1013.9
20260503020052 15 0 0.0 3.2 0.00 1.24 0.00 77 1014.0
20260503015546 15 0 0.0 0.0 0.00 1.24 0.00 77 1014.0
20260503015045 15 0 0.0 0.0 0.00 1.24 0.00 78 1013.9
20260503014609 15 0 0.0 0.0 0.00 1.24 0.00 80 1014.0
20260503014047 14 0 0.0 0.0 0.00 1.24 0.00 80 1014.0
20260503013548 14 0 0.0 0.0 0.00 1.24 0.00 80 1014.0
20260503013054 14 0 0.0 1.6 0.00 1.24 0.00 81 1014.0
20260503012547 14 0 0.0 1.6 0.00 1.24 0.00 80 1014.1
20260503012047 14 0 0.0 3.2 0.00 1.24 0.00 80 1014.1
20260503011600 14 0 0.0 3.2 0.00 1.24 0.00 80 1014.2
20260503011047 15 0 0.0 1.6 0.00 1.24 0.00 80 1014.2
20260503010547 15 0 0.0 1.6 0.00 1.24 0.00 80 1014.3
20260503010050 15 310 0.0 1.6 0.00 1.24 0.00 80 1014.3
20260503005551 15 0 0.0 0.0 0.00 1.24 0.00 80 1014.4
20260503005047 15 0 0.0 0.0 0.00 1.24 0.00 80 1014.4
20260503004616 15 0 0.0 0.0 0.00 1.24 0.00 80 1014.4
20260503004050 15 0 0.0 0.0 0.00 1.24 0.00 80 1014.5
20260503003546 15 0 0.0 3.2 0.00 1.24 0.00 80 1014.5
20260503003049 15 0 0.0 3.2 0.00 1.24 0.00 80 1014.5
20260503002550 15 310 0.0 3.2 0.00 1.24 0.00 79 1014.5
20260503002046 15 0 0.0 1.6 0.00 1.24 0.00 79 1014.6
20260503001601 15 0 0.0 1.6 0.00 1.24 0.00 79 1014.6
20260503001043 15 0 0.0 1.6 0.00 1.24 0.00 78 1014.9
20260503000543 15 0 0.0 1.6 0.00 1.24 0.00 78 1014.9
20260503000050 15 0 0.0 0.0 0.00 1.24 0.00 77 1014.9
20260502235542 15 0 0.0 0.0 0.00 1.24 0.00 78 1015.0
20260502235048 15 0 0.0 0.0 0.00 1.24 0.00 79 1014.9
20260502234554 15 0 0.0 0.0 0.00 1.24 0.00 79 1014.9
20260502234047 15 0 0.0 0.0 0.00 1.24 0.00 80 1015.0
20260502233547 14 0 0.0 1.6 0.00 1.24 0.00 80 1015.0
20260502233055 14 0 0.0 3.2 0.00 1.24 0.00 80 1015.0
20260502232550 14 0 0.0 3.2 0.00 1.24 0.00 80 1015.0
20260502232047 15 0 0.0 4.8 0.00 1.24 0.00 80 1015.0
20260502231552 15 0 1.6 4.8 0.00 1.24 0.00 80 1015.0
20260502231047 15 0 1.6 4.8 0.00 1.24 0.00 79 1015.0
20260502230544 15 310 1.6 8.0 0.00 1.24 0.00 77 1015.0
20260502230054 15 310 3.2 8.0 0.00 1.24 0.00 75 1015.0
20260502225545 15 309 1.6 8.0 0.00 1.24 0.00 72 1015.0
20260502225045 16 0 0.0 8.0 0.00 1.24 0.00 71 1015.1
20260502224548 16 175 3.2 8.0 0.00 1.24 0.00 71 1015.1
20260502224045 15 202 1.6 8.0 0.00 1.24 0.00 72 1015.1
20260502223544 15 193 3.2 9.7 0.00 1.24 0.00 72 1015.1
20260502223057 15 190 1.6 11.3 0.00 1.24 0.00 72 1015.0
20260502222547 15 175 4.8 11.3 0.00 1.24 0.00 72 1015.1
20260502222048 15 163 4.8 11.3 0.00 1.24 0.00 72 1015.1
20260502221550 16 170 6.4 11.3 0.00 1.24 0.00 72 1015.1
20260502221048 16 130 6.4 12.9 0.00 1.24 0.00 72 1015.2
20260502220547 16 193 6.4 12.9 0.00 1.24 0.00 72 1015.2
20260502220053 16 180 4.8 9.7 0.00 1.24 0.00 72 1015.2
20260502215547 16 185 3.2 9.7 0.00 1.24 1.24 72 1015.3
20260502215046 16 203 3.2 9.7 0.00 1.24 1.24 72 1015.3
20260502214552 16 194 3.2 9.7 0.00 1.24 1.24 72 1015.4
20260502214046 16 177 3.2 9.7 0.00 1.24 1.24 72 1015.4
20260502213546 16 174 3.2 6.4 0.00 1.24 1.24 72 1015.3
20260502213051 16 220 3.2 6.4 0.00 1.24 1.24 72 1015.3
20260502212545 16 174 3.2 11.3 0.00 1.24 1.24 73 1015.3
20260502212047 16 155 1.6 11.3 0.00 1.24 1.24 73 1015.2
20260502211551 16 168 4.8 11.3 0.00 1.24 1.24 73 1015.2
20260502211050 16 170 4.8 9.7 0.00 1.24 1.24 73 1015.2
20260502210548 16 174 3.2 6.4 0.00 1.24 1.24 74 1015.1
20260502210107 15 234 1.6 4.8 0.00 1.24 1.24 75 1015.2
20260502205546 15 0 0.0 1.6 0.00 1.24 1.24 76 1015.1
20260502205047 15 0 0.0 3.2 0.00 1.24 1.24 75 1015.2
20260502204557 15 0 0.0 4.8 0.00 1.24 1.24 75 1015.3
20260502204044 15 0 0.0 6.4 0.00 1.24 1.24 74 1015.2
20260502203547 16 234 1.6 6.4 0.00 1.24 1.24 74 1015.0
20260502203054 15 191 0.0 6.4 0.00 1.24 1.24 74 1015.0
20260502202549 15 180 0.0 8.0 0.00 1.24 1.24 74 1014.9
20260502202045 15 0 1.6 8.0 0.00 1.24 1.24 74 1014.9
20260502201555 15 205 0.0 8.0 0.00 1.24 1.24 74 1014.8
20260502201047 15 268 1.6 8.0 0.00 1.24 1.24 75 1014.7
20260502200546 15 197 1.6 6.4 0.00 1.24 1.24 74 1014.8
20260502200052 15 0 1.6 6.4 0.00 1.24 1.24 75 1014.8
20260502195546 15 227 0.0 6.4 0.00 1.24 1.24 75 1014.8
20260502195047 15 232 1.6 8.0 0.00 1.24 1.24 75 1014.9
20260502194557 15 0 1.6 8.0 0.00 1.24 1.24 75 1014.7
20260502194050 15 234 3.2 8.0 0.00 1.24 1.24 75 1014.7
20260502193543 15 195 3.2 8.0 0.00 1.24 1.24 74 1014.6
20260502193102 15 234 0.0 4.8 0.00 1.24 1.24 74 1014.5
20260502192544 15 0 0.0 4.8 0.00 1.24 1.24 74 1014.5
20260502192047 16 247 0.0 4.8 0.00 1.24 1.24 74 1014.5
20260502191602 16 240 0.0 4.8 0.00 1.24 1.24 73 1014.5
20260502191047 16 240 0.0 4.8 0.00 1.24 1.24 73 1014.5
20260502190550 16 0 0.0 4.8 0.00 1.24 1.24 73 1014.6
20260502190108 16 0 0.0 3.2 0.00 1.24 1.24 73 1014.6
20260502185546 16 313 0.0 3.2 0.00 1.24 1.24 73 1014.6
20260502185046 16 0 0.0 4.8 0.00 1.24 1.24 72 1014.5
20260502184606 16 0 1.6 4.8 0.00 1.24 1.24 71 1014.5
20260502184048 16 311 0.0 4.8 0.00 1.24 1.24 71 1014.5
20260502183546 16 311 0.0 6.4 0.00 1.24 1.24 70 1014.4
20260502183110 16 235 0.0 9.7 0.00 1.24 1.24 70 1014.4
20260502182543 16 288 0.0 9.7 0.00 1.24 1.24 69 1014.5
20260502182043 16 253 1.6 12.9 0.00 1.24 1.24 69 1014.5
20260502181552 16 276 1.6 12.9 0.00 1.24 1.24 70 1014.5
20260502181047 16 267 3.2 12.9 0.00 1.24 1.24 70 1014.5
20260502180550 16 281 3.2 12.9 0.00 1.24 1.24 71 1014.5
20260502164047 15 299 4.8 16.1 0.00 1.24 1.24 76 1015.0
20260502163544 15 341 1.6 14.5 0.00 1.24 1.24 77 1015.0
20260502163102 15 330 1.6 14.5 0.00 1.24 1.24 78 1015.1
20260502162544 15 302 1.6 9.7 0.00 1.24 1.24 80 1015.1
20260502162048 15 245 1.6 11.3 0.00 1.24 1.24 80 1015.2
20260502161620 15 296 1.6 11.3 0.00 1.24 1.24 81 1015.3
20260502161050 15 341 3.2 9.7 0.00 1.24 1.24 82 1015.4
20260502160547 15 336 3.2 9.7 0.00 1.24 1.24 83 1015.4
20260502152046 18 293 8.0 25.7 0.00 1.22 1.22 63 1015.6
20260502151555 18 245 8.0 24.1 0.00 1.22 1.22 63 1015.1
20260502151048 18 182 9.7 24.1 0.00 1.22 1.22 63 1015.0
20260502150544 19 220 6.4 17.7 0.00 1.22 1.22 64 1015.1
20260502130547 15 301 3.2 12.9 0.36 1.22 1.22 83 1016.6
20260502123543 13 3 3.2 16.1 0.36 1.22 1.22 83 1016.7
20260502123051 14 239 8.0 16.1 0.33 1.19 1.19 82 1017.6
20260502122543 15 195 3.2 12.9 0.15 1.02 1.02 82 1017.7
20260502122044 16 0 3.2 12.9 0.08 0.94 0.94 79 1017.2
20260502121553 16 261 3.2 12.9 0.03 0.89 0.89 76 1017.3
20260502121045 16 213 4.8 16.1 0.00 0.84 0.84 74 1017.2
20260502120544 16 211 6.4 17.7 0.00 0.84 0.84 74 1017.1
20260502115542 16 192 4.8 12.9 0.00 0.84 0.84 74 1017.1
20260502115044 16 227 3.2 12.9 0.00 0.84 0.84 75 1017.1
20260502114555 16 187 4.8 16.1 0.00 0.84 0.84 75 1017.3
20260502114047 16 176 6.4 16.1 0.00 0.84 0.84 75 1017.3
20260502113546 16 176 8.0 16.1 0.00 0.84 0.84 75 1017.4
20260502113054 16 153 6.4 16.1 0.00 0.84 0.84 75 1017.4
20260502112546 16 121 8.0 16.1 0.00 0.84 0.84 75 1017.5
20260502112043 16 167 6.4 16.1 0.00 0.84 0.84 76 1017.6
20260502111552 16 205 6.4 16.1 0.00 0.84 0.84 76 1017.7
20260502111044 16 166 6.4 17.7 0.00 0.84 0.84 77 1017.8
20260502110546 16 155 8.0 17.7 0.00 0.84 0.84 78 1017.8
20260502110057 15 188 6.4 14.5 0.00 0.84 0.84 79 1017.7
20260502105544 15 149 6.4 14.5 0.00 0.84 0.84 80 1017.9
20260502105043 15 158 6.4 16.1 0.00 0.84 0.84 80 1017.9
20260502104550 15 187 4.8 16.1 0.00 0.84 0.84 81 1018.1
20260502104044 15 169 6.4 14.5 0.00 0.84 0.84 82 1018.1
20260502103545 15 169 8.0 14.5 0.03 0.84 0.84 82 1018.1
20260502103048 15 140 1.6 9.7 0.10 0.84 0.84 83 1018.0
20260502102544 15 207 3.2 9.7 0.10 0.84 0.84 84 1018.1
20260502102047 15 173 3.2 9.7 0.10 0.84 0.84 83 1018.2
20260502101554 15 109 1.6 9.7 0.10 0.84 0.84 84 1018.2
20260502101046 15 176 4.8 11.3 0.10 0.84 0.84 84 1018.3
20260502100548 15 155 3.2 11.3 0.10 0.84 0.84 84 1018.4
20260502091044 14 125 1.6 14.5 0.15 0.74 0.74 86 1018.2
20260502090544 14 152 3.2 17.7 0.18 0.74 0.74 86 1018.2
20260502071047 14 188 6.4 14.5 0.15 0.25 0.25 84 1018.6
20260502070547 14 152 1.6 11.3 0.25 0.25 0.25 85 1018.3
20260502065545 14 126 1.6 9.7 0.25 0.25 0.25 85 1018.3
20260502065045 14 158 3.2 9.7 0.25 0.25 0.25 84 1018.3
20260502064551 14 153 4.8 9.7 0.25 0.25 0.25 84 1018.4
20260502064045 14 147 3.2 9.7 0.25 0.25 0.25 85 1018.5
20260502063545 14 183 3.2 8.0 0.25 0.25 0.25 85 1018.3
20260502063049 14 93 3.2 12.9 0.25 0.25 0.25 85 1018.4
20260502062545 14 161 1.6 14.5 0.23 0.23 0.23 84 1018.6
20260502062045 14 168 4.8 16.1 0.23 0.23 0.23 83 1018.6
20260502061553 14 205 6.4 16.1 0.23 0.23 0.23 81 1018.5
20260502061045 15 167 6.4 14.5 0.08 0.08 0.08 80 1018.6
20260502060548 15 188 6.4 14.5 0.00 0.00 0.00 80 1019.0
20260502060051 15 224 6.4 14.5 0.00 0.00 0.00 79 1018.8
20260502055545 15 152 1.6 9.7 0.00 0.00 0.00 79 1018.3
20260502055045 15 188 4.8 9.7 0.00 0.00 0.00 80 1018.0
20260502054552 15 0 3.2 9.7 0.00 0.00 0.00 80 1018.1
20260502054045 15 180 4.8 11.3 0.00 0.00 0.00 80 1017.9
20260502053545 15 205 1.6 11.3 0.00 0.00 0.00 80 1017.8
20260502053115 15 167 3.2 9.7 0.00 0.00 0.00 80 1017.8
20260502052546 15 148 3.2 9.7 0.00 0.00 0.00 80 1017.9
20260502052045 15 92 1.6 9.7 0.00 0.00 0.00 80 1018.0
20260502051604 15 0 1.6 11.3 0.00 0.00 0.00 80 1017.9